Zurück zum Katalog

STARLINK-31260

AktivKommunikationVLEO
NORAD 58881·PAYLOAD·🇺🇸 United States

Gestartet Jan 29, 2024 von Vandenberg Space Force Base

Loading…

Nächste Überflüge (nächste 24 Stunden)

TLE

AktuellSource: CelesTrak SupGP

Epoche: Sep 14, 2026, 21:20 UTC

1 58881C 24020F   26257.88937500 -.00055765  00000+0 -16471-2 0  2577
2 58881  53.1581 160.1105 0001307  90.2895  58.9714 15.34428431    13

Verfolge STARLINK-31260 in Echtzeit mit AllMySat

Download on the App Store